<?xml version="1.0" encoding="UTF-8" standalone="no" ?>
<gpx xmlns="http://www.topografix.com/GPX/1/1" xmlns:xsi="http://www.w3.org/2001/XMLSchema-instance" xsi:schemaLocation="http://www.topografix.com/GPX/1/1 http://www.topografix.com/GPX/1/1/gpx.xsd" version="1.1" creator="VisuGPX - https://www.visugpx.com">
  <metadata>
    <name>Marche 2022 - 12km - Bas</name>
  </metadata>
  <trk>
    <name><![CDATA[14235728-Marche 2022 - 12km - Bas]]></name>
    <trkseg>
      <trkpt lat="45.84822" lon="4.52947">
        <ele>426</ele>
        <time>2022-03-20T20:24:20Z</time>
      </trkpt>
      <trkpt lat="45.84817" lon="4.52972">
        <ele>422</ele>
        <time>2022-03-20T20:24:44Z</time>
      </trkpt>
      <trkpt lat="45.84813" lon="4.52985">
        <ele>421</ele>
        <time>2022-03-20T20:24:57Z</time>
      </trkpt>
      <trkpt lat="45.8481" lon="4.52991">
        <ele>420</ele>
        <time>2022-03-20T20:25:04Z</time>
      </trkpt>
      <trkpt lat="45.84803" lon="4.5299">
        <ele>420</ele>
        <time>2022-03-20T20:25:14Z</time>
      </trkpt>
      <trkpt lat="45.84771" lon="4.52968">
        <ele>422</ele>
        <time>2022-03-20T20:26:01Z</time>
      </trkpt>
      <trkpt lat="45.8477" lon="4.52976">
        <ele>421</ele>
        <time>2022-03-20T20:26:09Z</time>
      </trkpt>
      <trkpt lat="45.84772" lon="4.52984">
        <ele>420</ele>
        <time>2022-03-20T20:26:16Z</time>
      </trkpt>
      <trkpt lat="45.8477" lon="4.52993">
        <ele>419</ele>
        <time>2022-03-20T20:26:25Z</time>
      </trkpt>
      <trkpt lat="45.84774" lon="4.53004">
        <ele>417</ele>
        <time>2022-03-20T20:26:37Z</time>
      </trkpt>
      <trkpt lat="45.84765" lon="4.53022">
        <ele>416</ele>
        <time>2022-03-20T20:26:57Z</time>
      </trkpt>
      <trkpt lat="45.84759" lon="4.53028">
        <ele>415</ele>
        <time>2022-03-20T20:27:07Z</time>
      </trkpt>
      <trkpt lat="45.84761" lon="4.53062">
        <ele>412</ele>
        <time>2022-03-20T20:27:39Z</time>
      </trkpt>
      <trkpt lat="45.84829" lon="4.53053">
        <ele>413</ele>
        <time>2022-03-20T20:29:10Z</time>
      </trkpt>
      <trkpt lat="45.84852" lon="4.53042">
        <ele>413</ele>
        <time>2022-03-20T20:29:42Z</time>
      </trkpt>
      <trkpt lat="45.84861" lon="4.53034">
        <ele>413</ele>
        <time>2022-03-20T20:29:56Z</time>
      </trkpt>
      <trkpt lat="45.84881" lon="4.53069">
        <ele>408</ele>
        <time>2022-03-20T20:30:39Z</time>
      </trkpt>
      <trkpt lat="45.84908" lon="4.53125">
        <ele>401</ele>
        <time>2022-03-20T20:31:42Z</time>
      </trkpt>
      <trkpt lat="45.84923" lon="4.53157">
        <ele>397</ele>
        <time>2022-03-20T20:32:18Z</time>
      </trkpt>
      <trkpt lat="45.84925" lon="4.53178">
        <ele>395</ele>
        <time>2022-03-20T20:32:37Z</time>
      </trkpt>
      <trkpt lat="45.84923" lon="4.53191">
        <ele>394</ele>
        <time>2022-03-20T20:32:50Z</time>
      </trkpt>
      <trkpt lat="45.8494" lon="4.53202">
        <ele>392</ele>
        <time>2022-03-20T20:33:15Z</time>
      </trkpt>
      <trkpt lat="45.84963" lon="4.53203">
        <ele>390</ele>
        <time>2022-03-20T20:33:45Z</time>
      </trkpt>
      <trkpt lat="45.84979" lon="4.532">
        <ele>389</ele>
        <time>2022-03-20T20:34:07Z</time>
      </trkpt>
      <trkpt lat="45.84994" lon="4.53194">
        <ele>388</ele>
        <time>2022-03-20T20:34:28Z</time>
      </trkpt>
      <trkpt lat="45.85038" lon="4.5323">
        <ele>381</ele>
        <time>2022-03-20T20:35:35Z</time>
      </trkpt>
      <trkpt lat="45.851" lon="4.53294">
        <ele>375</ele>
        <time>2022-03-20T20:37:17Z</time>
      </trkpt>
      <trkpt lat="45.85109" lon="4.53309">
        <ele>375</ele>
        <time>2022-03-20T20:37:36Z</time>
      </trkpt>
      <trkpt lat="45.85152" lon="4.53295">
        <ele>372</ele>
        <time>2022-03-20T20:38:34Z</time>
      </trkpt>
      <trkpt lat="45.85175" lon="4.53285">
        <ele>370</ele>
        <time>2022-03-20T20:39:06Z</time>
      </trkpt>
      <trkpt lat="45.85216" lon="4.53276">
        <ele>365</ele>
        <time>2022-03-20T20:40:02Z</time>
      </trkpt>
      <trkpt lat="45.85264" lon="4.53256">
        <ele>360</ele>
        <time>2022-03-20T20:41:08Z</time>
      </trkpt>
      <trkpt lat="45.85283" lon="4.53287">
        <ele>358</ele>
        <time>2022-03-20T20:41:47Z</time>
      </trkpt>
      <trkpt lat="45.85323" lon="4.53302">
        <ele>354</ele>
        <time>2022-03-20T20:42:42Z</time>
      </trkpt>
      <trkpt lat="45.85365" lon="4.53318">
        <ele>350</ele>
        <time>2022-03-20T20:43:40Z</time>
      </trkpt>
      <trkpt lat="45.85384" lon="4.53326">
        <ele>349</ele>
        <time>2022-03-20T20:44:06Z</time>
      </trkpt>
      <trkpt lat="45.85422" lon="4.53301">
        <ele>349</ele>
        <time>2022-03-20T20:45:02Z</time>
      </trkpt>
      <trkpt lat="45.85434" lon="4.53311">
        <ele>348</ele>
        <time>2022-03-20T20:45:21Z</time>
      </trkpt>
      <trkpt lat="45.85459" lon="4.53329">
        <ele>347</ele>
        <time>2022-03-20T20:45:58Z</time>
      </trkpt>
      <trkpt lat="45.85495" lon="4.53328">
        <ele>347</ele>
        <time>2022-03-20T20:46:46Z</time>
      </trkpt>
      <trkpt lat="45.85532" lon="4.53336">
        <ele>346</ele>
        <time>2022-03-20T20:47:36Z</time>
      </trkpt>
      <trkpt lat="45.85573" lon="4.53358">
        <ele>343</ele>
        <time>2022-03-20T20:48:34Z</time>
      </trkpt>
      <trkpt lat="45.85608" lon="4.53385">
        <ele>340</ele>
        <time>2022-03-20T20:49:27Z</time>
      </trkpt>
      <trkpt lat="45.85645" lon="4.53415">
        <ele>338</ele>
        <time>2022-03-20T20:50:24Z</time>
      </trkpt>
      <trkpt lat="45.85656" lon="4.53432">
        <ele>337</ele>
        <time>2022-03-20T20:50:46Z</time>
      </trkpt>
      <trkpt lat="45.85663" lon="4.53456">
        <ele>335</ele>
        <time>2022-03-20T20:51:10Z</time>
      </trkpt>
      <trkpt lat="45.85675" lon="4.53459">
        <ele>334</ele>
        <time>2022-03-20T20:51:26Z</time>
      </trkpt>
      <trkpt lat="45.85686" lon="4.53488">
        <ele>332</ele>
        <time>2022-03-20T20:51:57Z</time>
      </trkpt>
      <trkpt lat="45.85707" lon="4.53508">
        <ele>331</ele>
        <time>2022-03-20T20:52:31Z</time>
      </trkpt>
      <trkpt lat="45.857" lon="4.53541">
        <ele>332</ele>
        <time>2022-03-20T20:53:03Z</time>
      </trkpt>
      <trkpt lat="45.85698" lon="4.53568">
        <ele>332</ele>
        <time>2022-03-20T20:53:28Z</time>
      </trkpt>
      <trkpt lat="45.857" lon="4.53589">
        <ele>332</ele>
        <time>2022-03-20T20:53:48Z</time>
      </trkpt>
      <trkpt lat="45.85707" lon="4.53615">
        <ele>332</ele>
        <time>2022-03-20T20:54:13Z</time>
      </trkpt>
      <trkpt lat="45.85725" lon="4.53764">
        <ele>332</ele>
        <time>2022-03-20T20:56:34Z</time>
      </trkpt>
      <trkpt lat="45.85725" lon="4.53839">
        <ele>331</ele>
        <time>2022-03-20T20:57:44Z</time>
      </trkpt>
      <trkpt lat="45.85716" lon="4.53937">
        <ele>331</ele>
        <time>2022-03-20T20:59:16Z</time>
      </trkpt>
      <trkpt lat="45.85705" lon="4.54036">
        <ele>330</ele>
        <time>2022-03-20T21:00:49Z</time>
      </trkpt>
      <trkpt lat="45.85687" lon="4.54143">
        <ele>330</ele>
        <time>2022-03-20T21:02:31Z</time>
      </trkpt>
      <trkpt lat="45.85681" lon="4.5417">
        <ele>330</ele>
        <time>2022-03-20T21:02:57Z</time>
      </trkpt>
      <trkpt lat="45.85659" lon="4.54242">
        <ele>329</ele>
        <time>2022-03-20T21:04:10Z</time>
      </trkpt>
      <trkpt lat="45.85642" lon="4.54309">
        <ele>328</ele>
        <time>2022-03-20T21:05:17Z</time>
      </trkpt>
      <trkpt lat="45.85626" lon="4.54349">
        <ele>328</ele>
        <time>2022-03-20T21:06:00Z</time>
      </trkpt>
      <trkpt lat="45.85601" lon="4.54399">
        <ele>328</ele>
        <time>2022-03-20T21:06:57Z</time>
      </trkpt>
      <trkpt lat="45.85549" lon="4.54435">
        <ele>328</ele>
        <time>2022-03-20T21:08:14Z</time>
      </trkpt>
      <trkpt lat="45.85533" lon="4.54447">
        <ele>328</ele>
        <time>2022-03-20T21:08:38Z</time>
      </trkpt>
      <trkpt lat="45.85475" lon="4.54514">
        <ele>328</ele>
        <time>2022-03-20T21:10:17Z</time>
      </trkpt>
      <trkpt lat="45.8546" lon="4.54538">
        <ele>329</ele>
        <time>2022-03-20T21:10:47Z</time>
      </trkpt>
      <trkpt lat="45.85428" lon="4.54611">
        <ele>330</ele>
        <time>2022-03-20T21:12:07Z</time>
      </trkpt>
      <trkpt lat="45.85413" lon="4.54641">
        <ele>331</ele>
        <time>2022-03-20T21:12:42Z</time>
      </trkpt>
      <trkpt lat="45.85402" lon="4.5466">
        <ele>331</ele>
        <time>2022-03-20T21:13:05Z</time>
      </trkpt>
      <trkpt lat="45.85358" lon="4.54718">
        <ele>330</ele>
        <time>2022-03-20T21:14:24Z</time>
      </trkpt>
      <trkpt lat="45.85341" lon="4.5475">
        <ele>330</ele>
        <time>2022-03-20T21:15:02Z</time>
      </trkpt>
      <trkpt lat="45.85291" lon="4.54821">
        <ele>330</ele>
        <time>2022-03-20T21:16:36Z</time>
      </trkpt>
      <trkpt lat="45.85252" lon="4.54874">
        <ele>330</ele>
        <time>2022-03-20T21:17:47Z</time>
      </trkpt>
      <trkpt lat="45.85229" lon="4.54905">
        <ele>332</ele>
        <time>2022-03-20T21:18:29Z</time>
      </trkpt>
      <trkpt lat="45.85209" lon="4.54948">
        <ele>334</ele>
        <time>2022-03-20T21:19:17Z</time>
      </trkpt>
      <trkpt lat="45.85173" lon="4.55069">
        <ele>335</ele>
        <time>2022-03-20T21:21:20Z</time>
      </trkpt>
      <trkpt lat="45.85152" lon="4.55112">
        <ele>336</ele>
        <time>2022-03-20T21:22:09Z</time>
      </trkpt>
      <trkpt lat="45.85135" lon="4.55192">
        <ele>335</ele>
        <time>2022-03-20T21:23:26Z</time>
      </trkpt>
      <trkpt lat="45.85081" lon="4.55298">
        <ele>338</ele>
        <time>2022-03-20T21:25:28Z</time>
      </trkpt>
      <trkpt lat="45.84979" lon="4.55327">
        <ele>345</ele>
        <time>2022-03-20T21:27:47Z</time>
      </trkpt>
      <trkpt lat="45.84833" lon="4.55342">
        <ele>343</ele>
        <time>2022-03-20T21:31:02Z</time>
      </trkpt>
      <trkpt lat="45.84793" lon="4.55344">
        <ele>342</ele>
        <time>2022-03-20T21:31:56Z</time>
      </trkpt>
      <trkpt lat="45.84758" lon="4.5536">
        <ele>339</ele>
        <time>2022-03-20T21:32:45Z</time>
      </trkpt>
      <trkpt lat="45.84705" lon="4.55366">
        <ele>341</ele>
        <time>2022-03-20T21:33:56Z</time>
      </trkpt>
      <trkpt lat="45.8462" lon="4.55412">
        <ele>341</ele>
        <time>2022-03-20T21:35:57Z</time>
      </trkpt>
      <trkpt lat="45.84609" lon="4.55411">
        <ele>342</ele>
        <time>2022-03-20T21:36:12Z</time>
      </trkpt>
      <trkpt lat="45.84586" lon="4.55415">
        <ele>343</ele>
        <time>2022-03-20T21:36:43Z</time>
      </trkpt>
      <trkpt lat="45.84547" lon="4.55394">
        <ele>339</ele>
        <time>2022-03-20T21:37:38Z</time>
      </trkpt>
      <trkpt lat="45.845" lon="4.55334">
        <ele>336</ele>
        <time>2022-03-20T21:39:02Z</time>
      </trkpt>
      <trkpt lat="45.84447" lon="4.55243">
        <ele>333</ele>
        <time>2022-03-20T21:40:52Z</time>
      </trkpt>
      <trkpt lat="45.84405" lon="4.55208">
        <ele>332</ele>
        <time>2022-03-20T21:41:57Z</time>
      </trkpt>
      <trkpt lat="45.84371" lon="4.55322">
        <ele>334</ele>
        <time>2022-03-20T21:43:53Z</time>
      </trkpt>
      <trkpt lat="45.84349" lon="4.55383">
        <ele>336</ele>
        <time>2022-03-20T21:44:56Z</time>
      </trkpt>
      <trkpt lat="45.84289" lon="4.55433">
        <ele>343</ele>
        <time>2022-03-20T21:46:29Z</time>
      </trkpt>
      <trkpt lat="45.84265" lon="4.55475">
        <ele>345</ele>
        <time>2022-03-20T21:47:19Z</time>
      </trkpt>
      <trkpt lat="45.84236" lon="4.55506">
        <ele>347</ele>
        <time>2022-03-20T21:48:08Z</time>
      </trkpt>
      <trkpt lat="45.842" lon="4.55505">
        <ele>350</ele>
        <time>2022-03-20T21:48:56Z</time>
      </trkpt>
      <trkpt lat="45.84119" lon="4.55488">
        <ele>353</ele>
        <time>2022-03-20T21:50:45Z</time>
      </trkpt>
      <trkpt lat="45.84093" lon="4.55478">
        <ele>353</ele>
        <time>2022-03-20T21:51:21Z</time>
      </trkpt>
      <trkpt lat="45.84056" lon="4.55485">
        <ele>351</ele>
        <time>2022-03-20T21:52:11Z</time>
      </trkpt>
      <trkpt lat="45.84017" lon="4.5548">
        <ele>349</ele>
        <time>2022-03-20T21:53:03Z</time>
      </trkpt>
      <trkpt lat="45.8398" lon="4.55497">
        <ele>344</ele>
        <time>2022-03-20T21:53:55Z</time>
      </trkpt>
      <trkpt lat="45.8392" lon="4.55497">
        <ele>338</ele>
        <time>2022-03-20T21:55:15Z</time>
      </trkpt>
      <trkpt lat="45.83854" lon="4.55454">
        <ele>338</ele>
        <time>2022-03-20T21:56:52Z</time>
      </trkpt>
      <trkpt lat="45.8384" lon="4.55563">
        <ele>335</ele>
        <time>2022-03-20T21:58:35Z</time>
      </trkpt>
      <trkpt lat="45.83848" lon="4.55618">
        <ele>332</ele>
        <time>2022-03-20T21:59:27Z</time>
      </trkpt>
      <trkpt lat="45.83829" lon="4.55641">
        <ele>333</ele>
        <time>2022-03-20T22:00:00Z</time>
      </trkpt>
      <trkpt lat="45.83866" lon="4.55752">
        <ele>331</ele>
        <time>2022-03-20T22:01:54Z</time>
      </trkpt>
      <trkpt lat="45.83614" lon="4.5562">
        <ele>360</ele>
        <time>2022-03-20T22:07:52Z</time>
      </trkpt>
      <trkpt lat="45.83537" lon="4.55606">
        <ele>368</ele>
        <time>2022-03-20T22:09:36Z</time>
      </trkpt>
      <trkpt lat="45.83445" lon="4.55513">
        <ele>376</ele>
        <time>2022-03-20T22:12:06Z</time>
      </trkpt>
      <trkpt lat="45.83432" lon="4.55466">
        <ele>380</ele>
        <time>2022-03-20T22:12:53Z</time>
      </trkpt>
      <trkpt lat="45.83406" lon="4.55457">
        <ele>384</ele>
        <time>2022-03-20T22:13:29Z</time>
      </trkpt>
      <trkpt lat="45.83397" lon="4.55551">
        <ele>385</ele>
        <time>2022-03-20T22:14:57Z</time>
      </trkpt>
      <trkpt lat="45.83394" lon="4.55629">
        <ele>392</ele>
        <time>2022-03-20T22:16:10Z</time>
      </trkpt>
      <trkpt lat="45.83357" lon="4.5565">
        <ele>398</ele>
        <time>2022-03-20T22:17:03Z</time>
      </trkpt>
      <trkpt lat="45.83329" lon="4.55635">
        <ele>401</ele>
        <time>2022-03-20T22:17:43Z</time>
      </trkpt>
      <trkpt lat="45.83293" lon="4.55556">
        <ele>406</ele>
        <time>2022-03-20T22:19:11Z</time>
      </trkpt>
      <trkpt lat="45.8322" lon="4.55422">
        <ele>414</ele>
        <time>2022-03-20T22:21:49Z</time>
      </trkpt>
      <trkpt lat="45.83199" lon="4.55428">
        <ele>419</ele>
        <time>2022-03-20T22:22:17Z</time>
      </trkpt>
      <trkpt lat="45.83225" lon="4.55507">
        <ele>419</ele>
        <time>2022-03-20T22:23:38Z</time>
      </trkpt>
      <trkpt lat="45.83221" lon="4.55544">
        <ele>423</ele>
        <time>2022-03-20T22:24:13Z</time>
      </trkpt>
      <trkpt lat="45.83157" lon="4.55491">
        <ele>435</ele>
        <time>2022-03-20T22:25:52Z</time>
      </trkpt>
      <trkpt lat="45.83091" lon="4.55436">
        <ele>449</ele>
        <time>2022-03-20T22:27:34Z</time>
      </trkpt>
      <trkpt lat="45.83077" lon="4.55383">
        <ele>451</ele>
        <time>2022-03-20T22:28:26Z</time>
      </trkpt>
      <trkpt lat="45.83058" lon="4.5533">
        <ele>453</ele>
        <time>2022-03-20T22:29:22Z</time>
      </trkpt>
      <trkpt lat="45.83067" lon="4.55436">
        <ele>454</ele>
        <time>2022-03-20T22:31:01Z</time>
      </trkpt>
      <trkpt lat="45.83086" lon="4.5551">
        <ele>455</ele>
        <time>2022-03-20T22:32:14Z</time>
      </trkpt>
      <trkpt lat="45.83121" lon="4.55583">
        <ele>452</ele>
        <time>2022-03-20T22:33:37Z</time>
      </trkpt>
      <trkpt lat="45.83153" lon="4.55661">
        <ele>449</ele>
        <time>2022-03-20T22:35:01Z</time>
      </trkpt>
      <trkpt lat="45.83164" lon="4.55744">
        <ele>450</ele>
        <time>2022-03-20T22:36:20Z</time>
      </trkpt>
      <trkpt lat="45.83214" lon="4.55893">
        <ele>458</ele>
        <time>2022-03-20T22:38:53Z</time>
      </trkpt>
      <trkpt lat="45.83222" lon="4.55929">
        <ele>460</ele>
        <time>2022-03-20T22:39:28Z</time>
      </trkpt>
      <trkpt lat="45.83238" lon="4.56028">
        <ele>462</ele>
        <time>2022-03-20T22:41:03Z</time>
      </trkpt>
      <trkpt lat="45.83256" lon="4.56093">
        <ele>459</ele>
        <time>2022-03-20T22:42:08Z</time>
      </trkpt>
      <trkpt lat="45.83248" lon="4.56152">
        <ele>461</ele>
        <time>2022-03-20T22:43:04Z</time>
      </trkpt>
      <trkpt lat="45.83233" lon="4.56199">
        <ele>459</ele>
        <time>2022-03-20T22:43:52Z</time>
      </trkpt>
      <trkpt lat="45.83197" lon="4.56243">
        <ele>459</ele>
        <time>2022-03-20T22:44:55Z</time>
      </trkpt>
      <trkpt lat="45.83162" lon="4.56284">
        <ele>457</ele>
        <time>2022-03-20T22:45:55Z</time>
      </trkpt>
      <trkpt lat="45.83129" lon="4.56346">
        <ele>451</ele>
        <time>2022-03-20T22:47:08Z</time>
      </trkpt>
      <trkpt lat="45.83113" lon="4.56419">
        <ele>447</ele>
        <time>2022-03-20T22:48:19Z</time>
      </trkpt>
      <trkpt lat="45.83106" lon="4.56487">
        <ele>446</ele>
        <time>2022-03-20T22:49:23Z</time>
      </trkpt>
      <trkpt lat="45.83095" lon="4.56544">
        <ele>442</ele>
        <time>2022-03-20T22:50:18Z</time>
      </trkpt>
      <trkpt lat="45.83066" lon="4.56548">
        <ele>443</ele>
        <time>2022-03-20T22:50:57Z</time>
      </trkpt>
      <trkpt lat="45.83003" lon="4.56516">
        <ele>452</ele>
        <time>2022-03-20T22:52:26Z</time>
      </trkpt>
      <trkpt lat="45.829" lon="4.56428">
        <ele>454</ele>
        <time>2022-03-20T22:55:06Z</time>
      </trkpt>
      <trkpt lat="45.82799" lon="4.56352">
        <ele>448</ele>
        <time>2022-03-20T22:57:38Z</time>
      </trkpt>
      <trkpt lat="45.82786" lon="4.56257">
        <ele>454</ele>
        <time>2022-03-20T22:59:08Z</time>
      </trkpt>
      <trkpt lat="45.82809" lon="4.56078">
        <ele>460</ele>
        <time>2022-03-20T23:01:57Z</time>
      </trkpt>
      <trkpt lat="45.82793" lon="4.56066">
        <ele>455</ele>
        <time>2022-03-20T23:02:22Z</time>
      </trkpt>
      <trkpt lat="45.82771" lon="4.56032">
        <ele>448</ele>
        <time>2022-03-20T23:03:05Z</time>
      </trkpt>
      <trkpt lat="45.82742" lon="4.55997">
        <ele>441</ele>
        <time>2022-03-20T23:03:55Z</time>
      </trkpt>
      <trkpt lat="45.82822" lon="4.55837">
        <ele>451</ele>
        <time>2022-03-20T23:06:58Z</time>
      </trkpt>
      <trkpt lat="45.82913" lon="4.55664">
        <ele>466</ele>
        <time>2022-03-20T23:10:20Z</time>
      </trkpt>
      <trkpt lat="45.82965" lon="4.55642">
        <ele>469</ele>
        <time>2022-03-20T23:11:32Z</time>
      </trkpt>
      <trkpt lat="45.83012" lon="4.55591">
        <ele>469</ele>
        <time>2022-03-20T23:12:51Z</time>
      </trkpt>
      <trkpt lat="45.8303" lon="4.55551">
        <ele>466</ele>
        <time>2022-03-20T23:13:35Z</time>
      </trkpt>
      <trkpt lat="45.8303" lon="4.55512">
        <ele>464</ele>
        <time>2022-03-20T23:14:11Z</time>
      </trkpt>
      <trkpt lat="45.8303" lon="4.55444">
        <ele>461</ele>
        <time>2022-03-20T23:15:15Z</time>
      </trkpt>
      <trkpt lat="45.83016" lon="4.55309">
        <ele>456</ele>
        <time>2022-03-20T23:17:22Z</time>
      </trkpt>
      <trkpt lat="45.83047" lon="4.55292">
        <ele>453</ele>
        <time>2022-03-20T23:18:06Z</time>
      </trkpt>
      <trkpt lat="45.83149" lon="4.55051">
        <ele>456</ele>
        <time>2022-03-20T23:22:28Z</time>
      </trkpt>
      <trkpt lat="45.83174" lon="4.54974">
        <ele>462</ele>
        <time>2022-03-20T23:23:47Z</time>
      </trkpt>
      <trkpt lat="45.83176" lon="4.5493">
        <ele>466</ele>
        <time>2022-03-20T23:24:28Z</time>
      </trkpt>
      <trkpt lat="45.83208" lon="4.54795">
        <ele>471</ele>
        <time>2022-03-20T23:26:41Z</time>
      </trkpt>
      <trkpt lat="45.83273" lon="4.54695">
        <ele>467</ele>
        <time>2022-03-20T23:28:48Z</time>
      </trkpt>
      <trkpt lat="45.83287" lon="4.54658">
        <ele>464</ele>
        <time>2022-03-20T23:29:27Z</time>
      </trkpt>
      <trkpt lat="45.83294" lon="4.54609">
        <ele>460</ele>
        <time>2022-03-20T23:30:13Z</time>
      </trkpt>
      <trkpt lat="45.83285" lon="4.54577">
        <ele>459</ele>
        <time>2022-03-20T23:30:46Z</time>
      </trkpt>
      <trkpt lat="45.83274" lon="4.54543">
        <ele>459</ele>
        <time>2022-03-20T23:31:20Z</time>
      </trkpt>
      <trkpt lat="45.83264" lon="4.54497">
        <ele>458</ele>
        <time>2022-03-20T23:32:05Z</time>
      </trkpt>
      <trkpt lat="45.83275" lon="4.54445">
        <ele>459</ele>
        <time>2022-03-20T23:32:56Z</time>
      </trkpt>
      <trkpt lat="45.83313" lon="4.54342">
        <ele>460</ele>
        <time>2022-03-20T23:34:44Z</time>
      </trkpt>
      <trkpt lat="45.83335" lon="4.54204">
        <ele>464</ele>
        <time>2022-03-20T23:36:56Z</time>
      </trkpt>
      <trkpt lat="45.83337" lon="4.54086">
        <ele>466</ele>
        <time>2022-03-20T23:38:45Z</time>
      </trkpt>
      <trkpt lat="45.83384" lon="4.54013">
        <ele>464</ele>
        <time>2022-03-20T23:40:18Z</time>
      </trkpt>
      <trkpt lat="45.83424" lon="4.53967">
        <ele>467</ele>
        <time>2022-03-20T23:41:26Z</time>
      </trkpt>
      <trkpt lat="45.83468" lon="4.53857">
        <ele>469</ele>
        <time>2022-03-20T23:43:24Z</time>
      </trkpt>
      <trkpt lat="45.83532" lon="4.5368">
        <ele>470</ele>
        <time>2022-03-20T23:46:30Z</time>
      </trkpt>
      <trkpt lat="45.83572" lon="4.53604">
        <ele>477</ele>
        <time>2022-03-20T23:47:58Z</time>
      </trkpt>
      <trkpt lat="45.83641" lon="4.53669">
        <ele>484</ele>
        <time>2022-03-20T23:49:48Z</time>
      </trkpt>
      <trkpt lat="45.83703" lon="4.53746">
        <ele>489</ele>
        <time>2022-03-20T23:51:38Z</time>
      </trkpt>
      <trkpt lat="45.83739" lon="4.53786">
        <ele>488</ele>
        <time>2022-03-20T23:52:38Z</time>
      </trkpt>
      <trkpt lat="45.8378" lon="4.53806">
        <ele>492</ele>
        <time>2022-03-20T23:53:36Z</time>
      </trkpt>
      <trkpt lat="45.8383" lon="4.53826">
        <ele>497</ele>
        <time>2022-03-20T23:54:46Z</time>
      </trkpt>
      <trkpt lat="45.83886" lon="4.53834">
        <ele>495</ele>
        <time>2022-03-20T23:56:01Z</time>
      </trkpt>
      <trkpt lat="45.8393" lon="4.53829">
        <ele>496</ele>
        <time>2022-03-20T23:57:00Z</time>
      </trkpt>
      <trkpt lat="45.83967" lon="4.53829">
        <ele>493</ele>
        <time>2022-03-20T23:57:49Z</time>
      </trkpt>
      <trkpt lat="45.83996" lon="4.53826">
        <ele>492</ele>
        <time>2022-03-20T23:58:28Z</time>
      </trkpt>
      <trkpt lat="45.84028" lon="4.5382">
        <ele>489</ele>
        <time>2022-03-20T23:59:11Z</time>
      </trkpt>
      <trkpt lat="45.84049" lon="4.53825">
        <ele>484</ele>
        <time>2022-03-20T23:59:39Z</time>
      </trkpt>
      <trkpt lat="45.84076" lon="4.53822">
        <ele>480</ele>
        <time>2022-03-21T00:00:15Z</time>
      </trkpt>
      <trkpt lat="45.8411" lon="4.53814">
        <ele>474</ele>
        <time>2022-03-21T00:01:01Z</time>
      </trkpt>
      <trkpt lat="45.84143" lon="4.53789">
        <ele>471</ele>
        <time>2022-03-21T00:01:51Z</time>
      </trkpt>
      <trkpt lat="45.8418" lon="4.53752">
        <ele>471</ele>
        <time>2022-03-21T00:02:51Z</time>
      </trkpt>
      <trkpt lat="45.8419" lon="4.53683">
        <ele>475</ele>
        <time>2022-03-21T00:03:57Z</time>
      </trkpt>
      <trkpt lat="45.84192" lon="4.53568">
        <ele>478</ele>
        <time>2022-03-21T00:05:44Z</time>
      </trkpt>
      <trkpt lat="45.84182" lon="4.53467">
        <ele>480</ele>
        <time>2022-03-21T00:07:19Z</time>
      </trkpt>
      <trkpt lat="45.84153" lon="4.53391">
        <ele>488</ele>
        <time>2022-03-21T00:08:39Z</time>
      </trkpt>
      <trkpt lat="45.84148" lon="4.53342">
        <ele>484</ele>
        <time>2022-03-21T00:09:25Z</time>
      </trkpt>
      <trkpt lat="45.84109" lon="4.53238">
        <ele>492</ele>
        <time>2022-03-21T00:11:15Z</time>
      </trkpt>
      <trkpt lat="45.84118" lon="4.5318">
        <ele>489</ele>
        <time>2022-03-21T00:12:10Z</time>
      </trkpt>
      <trkpt lat="45.8414" lon="4.53134">
        <ele>487</ele>
        <time>2022-03-21T00:13:02Z</time>
      </trkpt>
      <trkpt lat="45.84193" lon="4.53106">
        <ele>474</ele>
        <time>2022-03-21T00:14:17Z</time>
      </trkpt>
      <trkpt lat="45.84257" lon="4.53069">
        <ele>456</ele>
        <time>2022-03-21T00:15:50Z</time>
      </trkpt>
      <trkpt lat="45.84267" lon="4.53006">
        <ele>458</ele>
        <time>2022-03-21T00:16:50Z</time>
      </trkpt>
      <trkpt lat="45.8429" lon="4.52929">
        <ele>452</ele>
        <time>2022-03-21T00:18:07Z</time>
      </trkpt>
      <trkpt lat="45.84295" lon="4.52881">
        <ele>453</ele>
        <time>2022-03-21T00:18:53Z</time>
      </trkpt>
      <trkpt lat="45.84316" lon="4.52847">
        <ele>452</ele>
        <time>2022-03-21T00:19:35Z</time>
      </trkpt>
      <trkpt lat="45.84379" lon="4.52849">
        <ele>445</ele>
        <time>2022-03-21T00:20:59Z</time>
      </trkpt>
      <trkpt lat="45.84471" lon="4.52852">
        <ele>439</ele>
        <time>2022-03-21T00:23:02Z</time>
      </trkpt>
      <trkpt lat="45.84568" lon="4.52893">
        <ele>431</ele>
        <time>2022-03-21T00:25:17Z</time>
      </trkpt>
      <trkpt lat="45.84629" lon="4.52903">
        <ele>430</ele>
        <time>2022-03-21T00:26:39Z</time>
      </trkpt>
      <trkpt lat="45.84666" lon="4.52916">
        <ele>427</ele>
        <time>2022-03-21T00:27:29Z</time>
      </trkpt>
      <trkpt lat="45.8468" lon="4.52952">
        <ele>423</ele>
        <time>2022-03-21T00:28:08Z</time>
      </trkpt>
      <trkpt lat="45.84737" lon="4.52943">
        <ele>426</ele>
        <time>2022-03-21T00:29:24Z</time>
      </trkpt>
      <trkpt lat="45.84768" lon="4.52966">
        <ele>423</ele>
        <time>2022-03-21T00:30:11Z</time>
      </trkpt>
      <trkpt lat="45.84801" lon="4.52988">
        <ele>420</ele>
        <time>2022-03-21T00:30:59Z</time>
      </trkpt>
      <trkpt lat="45.84809" lon="4.52988">
        <ele>420</ele>
        <time>2022-03-21T00:31:10Z</time>
      </trkpt>
      <trkpt lat="45.84812" lon="4.52982">
        <ele>421</ele>
        <time>2022-03-21T00:31:17Z</time>
      </trkpt>
      <trkpt lat="45.8482" lon="4.52946">
        <ele>426</ele>
        <time>2022-03-21T00:31:52Z</time>
      </trkpt>
    </trkseg>
  </trk>
</gpx>